Location: Unnamed
(53.9021°N, 27.5568°E)
Time: 19:29:59
(UTC+03:00)

STARLINK-73 - Pass Details

Date: 20 January 2020
Orbit: 528 x 531 km, 53.0° (Epoch: 25 February)

Event Time Altitude Azimuth Distance (km) Brightness Sun altitude
Exits shadow 06:31:33 - 185° (S) 2,387 6.9 -23.4°
Reaches altitude 10° 06:34:00 10° 161° (SSE) 1,773 6.5 -23.0°
Maximum altitude 06:35:46 13° 135° (SE) 1,614 6.6 -22.8°
Drops below altitude 10° 06:37:32 10° 108° (ESE) 1,779 7.3 -22.5°
Sets 06:40:51 0° 80° (E) 2,675 8.5 -22.0°
